カタログに戻る

CZ-4C R/B

運用中LEO
NORAD 40341·ROCKET BODY·🇨🇳 China

打ち上げ Dec 10, 2014 から Jiuquan Satellite Launch Center

Loading…

次のパス (今後24時間)

TLE

最新Source: Space-Track

元期: Sep 14, 2026, 14:31 UTC

1 40341U 14080D   26257.60525721 -.00000013  00000-0  40746-4 0  9995
2 40341  63.4263 337.2898 0547445 352.9484   6.4068 13.69896798588070

AllMySatでCZ-4C R/Bをリアルタイム追跡

Download on the App Store